Home > Weather > Wertheim > Past weeks

Flag for Germany Weather for the Past 2 Weeks in Wertheim, Baden-Württemberg, Germany

Now
39 °F

Rain showers. Overcast.


Feels Like: 28 °F
Forecast: 35 / 40 °F
Wind: 29 mph from West

Location: Niederstetten

Current Time: Feb 9, 2016 at 3:42:07 AM

Latest Report: Feb 9, 2016 at 2:20 AM


Visibility: N/A

Pressure: 29.68 "Hg

Humidity: 87%

Dew point: 36 °F

Location of WertheimLocation

Historic Weather in Wertheim — Graph

°F

Wertheim Temperature Yesterday

Maximum temperature yesterday: 50 °F (at 12:20 PM)
Minimum temperature yesterday: 37 °F (at 4:20 AM)
Average temperature yesterday: 42 °F

High & Low Weather Summary for the Past Weeks

 TemperatureHumidityPressure
High54 °F (Jan 26, 12:20 PM)100% (Jan 25, 12:20 PM)30.42 "Hg (Jan 25, 12:20 PM)
Low30 °F (Feb 3, 7:20 PM)54% (Jan 27, 2:20 PM)29.50 "Hg (Feb 8, 1:20 PM)
Average42 °F82%30.08 "Hg
* Reported Jan 25 2:20 AM — Feb 9 2:20 AM, Wertheim, Weather by CustomWeather, © 2016

Note: Actual official high and low records may vary slightly from our data, if they occured in-between our weather recording intervals... More about our weather records

Advertising

Wertheim Weather History for the Previous 24 Hours

 ConditionsComfort  
Time TempWeatherWind HumidityBarometerVisibility
2:20 AM
Tue, Feb 9
39 °FRain showers. Overcast.29 mph87%29.68 "HgN/A
2:00 AM43 °FRain showers. Overcast.22 mph76%29.68 "Hg3 mi
1:20 AM43 °FPassing clouds.26 mph71%29.68 "HgN/A
12:20 AM43 °FPassing clouds.25 mph71%29.65 "HgN/A
11:20 PM
Mon, Feb 8
41 °FPassing clouds.23 mph81%29.65 "HgN/A
10:20 PM41 °FPassing clouds.24 mph76%29.65 "HgN/A
9:20 PM39 °FLow clouds.29 mph81%29.65 "HgN/A
8:56 PM39 °FThunderstorms. Overcast.23 mph81%29.65 "Hg3 mi
8:20 PM41 °FPassing clouds.24 mph81%29.59 "HgN/A
7:20 PM41 °FPassing clouds.22 mph87%29.59 "HgN/A
6:20 PM43 °FThunderstorms. Partly cloudy.20 mph81%29.56 "HgN/A
5:20 PM45 °FScattered clouds.36 mph71%29.53 "HgN/A
5:03 PM43 °FRain showers. Broken clouds.21 mph93%29.53 "Hg4 mi
4:20 PM43 °FRain showers. Partly sunny.17 mph93%29.53 "Hg4 mi
3:20 PM45 °FSprinkles. Partly sunny.37 mph81%29.50 "HgN/A
2:20 PM50 °FLots of rain. Overcast.26 mph67%29.50 "Hg5 mi
1:20 PM50 °FSprinkles. Partly sunny.26 mph62%29.50 "HgN/A
12:20 PM50 °FPartly sunny.24 mph62%29.53 "HgN/A
11:20 AM46 °FPartly sunny.18 mph71%29.56 "HgN/A
10:20 AM46 °FBroken clouds.21 mph66%29.56 "HgN/A
9:20 AM45 °FBroken clouds.21 mph61%29.59 "HgN/A
8:20 AM43 °FPartly sunny.25 mph61%29.62 "HgN/A
7:20 AM41 °FPassing clouds.18 mph66%29.62 "HgN/A
6:20 AM39 °FPassing clouds.13 mph75%29.68 "HgN/A
5:20 AM37 °FPassing clouds.13 mph75%29.71 "HgN/A
4:20 AM37 °FPassing clouds.12 mph75%29.74 "HgN/A
3:20 AM39 °FPassing clouds.14 mph75%29.74 "HgN/A
Weather by CustomWeather, © 2016

See weather overviewHow to use our weather pages